Bowling Green, KY

6:48 AM CST on December 04, 2016 (GMT -0600)
Bowling Green-Warren County Regional

Weather History for KBWG - April, 2013

Change the Weather History Date:

Thursday, April 4, 2013

  Actual Average Record
Temperature  
Mean Temperature 45 °F 54 °F  
Max Temperature 50 °F 66 °F 86 °F (1934)
Min Temperature 40 °F 42 °F 26 °F (1904)
Degree Days  
Heating Degree Days 20 11  
Month to date heating degree days 81 47  
Since 1 July heating degree days 3653 3765  
Cooling Degree Days 0 1  
Month to date cooling degree days 0 3  
Year to date cooling degree days 0 8  
Moisture  
Dew Point 35 °F    
Average Humidity 66    
Maximum Humidity 93    
Minimum Humidity 39    
Precipitation  
Precipitation 0.17 in 0.13 in 4.61 in (1968)
Month to date precipitation 0.17 0.53  
Year to date precipitation 13.07 12.51  
Snow  
Snow 0.00 in 0.10 in T in (1920)
Month to date snowfall 0.0 0.1  
Since 1 July snowfall 3.8 9.0  
Snow Depth 0.00 in    
Sea Level Pressure  
Sea Level Pressure 30.08 in    
Wind  
Wind Speed 4 mph (ENE)    
Max Wind Speed 10 mph    
Max Gust Speed 13 mph    
Visibility 8 miles    
Events Rain    
T = Trace of Precipitation, MM = Missing Value Source: NWS Daily Summary

Daily Weather History Graph

Daily Weather History Graph

Search for Another Location

Airport or City:

Trip Planner

Search our weather history database for the weather conditions in past years. The results will help you decide how hot, cold, wet, or windy it might be!

Date:

Astronomy

Apr. 04, 2013 Rise Set
Actual Time 6:26 AM CDT 7:10 PM CDT
Civil Twilight 6:00 AM CDT 7:37 PM CDT
Nautical Twilight 5:29 AM CDT 8:08 PM CDT
Astronomical Twilight 4:57 AM CDT 8:40 PM CDT
Moon 2:44 AM CDT 1:36 PM CDT
Length of Visible Light 13h 36m
Length of Day
12h 44m
Waning Crescent, 33% of the Moon is Illuminated
Apr 4
Waning Crescent
Apr 10
New
Apr 18
First Quarter
Apr 25
Full
May 2
Last Quarter

Hourly Weather History & Observations

Time (CDT) Temp. Windchill Dew Point Humidity Pressure Visibility Wind Dir Wind Speed Gust Speed Precip Events Conditions
12:53 AM 42.1 °F 39.2 °F 21.9 °F 45% 30.22 in 10.0 mi NE 4.6 mph - N/A   Clear
1:53 AM 41.0 °F 38.0 °F 21.9 °F 47% 30.20 in 10.0 mi NE 4.6 mph - N/A   Clear
2:53 AM 42.1 °F 37.7 °F 21.0 °F 43% 30.15 in 10.0 mi ENE 6.9 mph - N/A   Clear
3:53 AM 41.0 °F 36.4 °F 21.9 °F 47% 30.14 in 10.0 mi NE 6.9 mph - N/A   Clear
4:53 AM 43.0 °F 38.2 °F 19.9 °F 40% 30.13 in 10.0 mi ENE 8.1 mph - N/A   Clear
5:53 AM 42.1 °F 37.7 °F 21.0 °F 43% 30.13 in 10.0 mi ENE 6.9 mph - N/A   Scattered Clouds
6:53 AM 42.1 °F 37.7 °F 21.9 °F 45% 30.14 in 10.0 mi NE 6.9 mph - N/A   Partly Cloudy
7:53 AM 44.1 °F 39.0 °F 21.0 °F 40% 30.12 in 10.0 mi NE 9.2 mph - N/A   Mostly Cloudy
8:53 AM 45.0 °F 40.6 °F 21.9 °F 40% 30.12 in 10.0 mi ENE 8.1 mph - N/A   Overcast
9:53 AM 46.9 °F - 25.0 °F 42% 30.13 in 10.0 mi East 4.6 mph - 0.00 in   Overcast
10:53 AM 46.9 °F - 26.1 °F 44% 30.13 in 10.0 mi East 5.8 mph - N/A   Overcast
11:53 AM 48.9 °F - 28.0 °F 44% 30.12 in 10.0 mi East 5.8 mph - N/A   Overcast
12:22 PM 48.2 °F - 30.2 °F 50% 30.11 in 10.0 mi East 3.5 mph - N/A   Overcast
12:53 PM 48.9 °F - 33.1 °F 54% 30.10 in 10.0 mi SE 5.8 mph - N/A   Overcast
1:46 PM 48.2 °F - 35.6 °F 62% 30.08 in 10.0 mi SE 4.6 mph - N/A   Overcast
1:53 PM 48.0 °F - 36.0 °F 63% 30.08 in 10.0 mi SE 4.6 mph - N/A   Overcast
2:05 PM 48.2 °F - 35.6 °F 62% 30.07 in 10.0 mi ESE 5.8 mph - N/A   Overcast
2:53 PM 48.0 °F - 37.9 °F 68% 30.06 in 10.0 mi SE 3.5 mph - N/A   Overcast
3:53 PM 46.9 °F - 41.0 °F 80% 30.05 in 6.0 mi ESE 4.6 mph - 0.02 in Rain Light Rain
4:09 PM 46.4 °F 45.2 °F 42.8 °F 87% 30.04 in 7.0 mi ESE 3.5 mph - 0.01 in Rain Light Rain
4:53 PM 46.9 °F - 43.0 °F 86% 30.04 in 9.0 mi East 3.5 mph - 0.05 in Rain Light Rain
5:53 PM 46.9 °F - 43.0 °F 86% 30.04 in 5.0 mi Calm Calm - 0.04 in Rain Rain
6:53 PM 46.9 °F - 44.1 °F 90% 30.03 in 5.0 mi Calm Calm - 0.05 in Rain Light Rain
7:10 PM 46.4 °F 45.2 °F 44.6 °F 93% 30.02 in 4.0 mi NNW 3.5 mph - 0.01 in Rain Light Rain
7:22 PM 46.4 °F 44.3 °F 44.6 °F 93% 30.02 in 6.0 mi North 4.6 mph - 0.01 in Rain Light Rain
7:45 PM 46.4 °F 45.2 °F 44.6 °F 93% 30.03 in 6.0 mi North 3.5 mph - 0.01 in   Overcast
7:53 PM 46.9 °F - 44.1 °F 90% 30.03 in 6.0 mi North 3.5 mph - 0.01 in   Overcast
8:03 PM 46.4 °F 44.3 °F 44.6 °F 93% 30.03 in 6.0 mi North 4.6 mph - N/A   Overcast
8:53 PM 46.9 °F - 44.1 °F 90% 30.04 in 6.0 mi Calm Calm - N/A   Overcast
9:23 PM 46.4 °F - 42.8 °F 87% 30.03 in 6.0 mi Calm Calm - N/A   Mostly Cloudy
9:33 PM 46.4 °F 45.2 °F 42.8 °F 87% 30.04 in 5.0 mi NW 3.5 mph - N/A   Overcast
9:53 PM 46.0 °F - 45.0 °F 96% 30.04 in 5.0 mi Calm Calm - N/A   Overcast
10:53 PM 46.9 °F - 44.1 °F 90% 30.03 in 6.0 mi Calm Calm - N/A   Overcast
11:10 PM 46.4 °F - 42.8 °F 87% 30.03 in 6.0 mi Calm Calm - N/A   Overcast
11:53 PM 46.9 °F - 44.1 °F 90% 30.03 in 4.0 mi Calm Calm - N/A   Overcast